Regional Weather Roundup
Issued by NWS

Home | Current Version | Previous Version | Graphics & Text | Print | Product List | Glossary On
Versions: 1 2 3 4 5 6 7 8 9 10 11 12 13 14 15 16 17 18 19 20 21 22 23 24 25 26 27 28 29 30 31 32 33 34 35 36 37 38 39 40 41 42 43 44 45 46 47 48 49 50
000
ASUS43 KMPX 270510
RWRMN
WEATHER ROUNDUP FOR MINNESOTA
NATIONAL WEATHER SERVICE TWIN CITIES/CHANHASSEN MN
1100 PM CST FRI DEC 26 2014


NOTE: "FAIR" INDICATES FEW OR NO CLOUDS BELOW 12,000 FEET WITH NO
SIGNIFICANT WEATHER AND/OR OBSTRUCTIONS TO VISIBILITY. N/A MEANS
CURRENT SKY AND/OR WEATHER CONDITIONS ARE NOT AVAILABLE.

MNZ060>063-068>070-270600-
   Twin Cities Metro

CITY           SKY/WX    TMP DP  RH WIND       PRES   REMARKS
TWIN CITIES    LGT SNOW  28  25  88 N10       30.06F FOG     WCI  19
ST PAUL        LGT SNOW  29  26  89 N8        30.08S FOG     WCI  21
CRYSTAL        LGT SNOW  28  25  88 N7        30.06F FOG     WCI  21
BLAINE         MIX PCPN  28  28 100 N10       30.07S WCI  19
LAKEVILLE      MIX PCPN  27  27 100 N9        30.03F WCI  17
EDEN PRAIRIE   FLURRIES  28  24  85 N8        30.04F WCI  20
SOUTH ST PAUL  LGT SNOW  30  27  90 N8        30.06F WCI  22
LAKE ELMO      LGT SNOW  30  28  93 N7        30.07S WCI  23
$$
MNZ001>005-007-008-013>017-022>024-027-028-270600-
   Northwest Minnesota

CITY           SKY/WX    TMP DP  RH WIND       PRES   REMARKS
BEMIDJI        FLURRIES  17  12  80 NW5       30.13S WCI  10
HALLOCK        FLURRIES   9   5  85 CALM      30.22S
ROSEAU         FLURRIES  12   7  79 CALM      30.18S
WARROAD        FLURRIES  12   7  79 NW3       30.17F
THIEF RVR FALL CLOUDY    10   7  85 NW7       30.19S WCI   0
CROOKSTON      FLURRIES  10   7  85 N7        30.23S WCI   0
FOSSTON        FLURRIES  10   9  92 NW7       30.17S WCI   0
DETROIT LAKES  FLURRIES  14  12  92 NW9       30.16S WCI   2
MOORHEAD       PTCLDY    10   9  92 N8        30.22F WCI  -1
PARK RAPIDS    CLOUDY    21  15  78 N8        30.11S WCI  11
MAHNOMEN       CLOUDY    11   8  89 NW7       30.16F WCI   0
$$
MNZ006-009>011-018-025>026-270600-
   North Central Minnesota

CITY           SKY/WX    TMP DP  RH WIND       PRES   REMARKS
BAUDETTE       CLOUDY    13   8  81 N7        30.15F WCI   3
FLAG ISLAND    CLOUDY    10   5  79 NW5       30.17S WCI   2
INTL FALLS     CLOUDY    16  10  77 NW7       30.14S WCI   6
WASKISH        CLOUDY    18  10  73 CALM      30.15S
BIG FORK       FLURRIES  19  14  79 N5        30.13S WCI  13
LONGVILLE      CLOUDY    21  16  79 N3        30.11F
GRAND RAPIDS   CLOUDY    19  14  79 N8        30.10F WCI   9
CRANE LAKE     CLOUDY    18  12  79 CALM      30.15S
ORR            CLOUDY    18  12  79 NW6       30.10S WCI   9
COOK           CLOUDY    19  16  86 N3        30.11F
WALKER         CLOUDY    19  13  77 N6        30.12S WCI  11
$$
MNZ012-019>021-037-270600-
   Northeast Minnesota

CITY           SKY/WX    TMP DP  RH WIND       PRES   REMARKS
DULUTH         CLOUDY    25  17  72 N6        30.07R WCI  18
ELY            FLURRIES  18  16  93 NW6       30.09S WCI   9
HIBBING        CLOUDY    22  15  75 N9        30.10S WCI  12
EVELETH        FLURRIES  23  18  80 NW7       30.10F WCI  15
DULUTH HARBOR  CLOUDY    30  21  69 N9        30.12S WCI  22
TWO HARBORS    CLOUDY    28  21  74 NW5       30.07S WCI  23
GRAND MARAIS     N/A     27  20  75 N12G18    30.09F WCI  17
G MARAIS ARPRT MOCLDY    18  16  93 NW5       30.04S WCI  11
$$
MNZ029>031-032-039>041-046>048-054>057-064-270600-
   West Central Minnesota

CITY           SKY/WX    TMP DP  RH WIND       PRES   REMARKS
FERGUS FALLS   CLOUDY    16  10  79 N13G18    30.19S WCI   2
WHEATON        CLOUDY    16  12  86 NW16      30.20R WCI   0
MORRIS         CLOUDY    21  18  86 N14       30.13S WCI   8
ALEXANDRIA     CLOUDY    23  17  78 N10       30.11R WCI  12
ELBOW LAKE     CLOUDY    19  15  85 N12       30.14R WCI   7
WADENA         CLOUDY    19  16  86 N7        30.11S WCI  10
GLENWOOD       CLOUDY    23  19  86 N9        30.10F WCI  13
APPLETON       CLOUDY    23  19  86 N17       30.13S WCI   9
BENSON         CLOUDY    25  19  80 N8        30.12S WCI  16
ORTONVILLE     CLOUDY    19  16  86 N16       30.15S WCI   5
MADISON        CLOUDY    25  21  86 N18       30.13F WCI  11
WILLMAR        CLOUDY    27  19  74 N13       30.09F WCI  16
$$
MNZ033>034-036-042>043-049>051-058-059-270600-
   Central Minnesota

CITY           SKY/WX    TMP DP  RH WIND       PRES   REMARKS
ST CLOUD       CLOUDY    27  19  72 N13       30.09F WCI  16
SAUK CENTRE    CLOUDY    23  17  78 N8        30.10F WCI  13
PAYNESVILLE    CLOUDY    22  19  86 NW9       30.09F WCI  12
AITKIN         CLOUDY    25  18  74 N7        30.10S WCI  17
PINE RIVER     CLOUDY    21  16  79 N6        30.14F WCI  14
BRAINERD       CLOUDY    21  15  78 N8        30.12F WCI  11
STAPLES        CLOUDY    21  16  79 N7        30.11S WCI  13
LONG PRAIRIE   CLOUDY    23  18  80 N8        30.10S WCI  14
LITTLE FALLS   CLOUDY    23  18  80 N5        30.12F WCI  17
LITCHFIELD     CLOUDY    27  23  86 N10       30.08F WCI  17
BUFFALO        LGT SNOW  26  23  87 N6        30.09S WCI  20
MAPLE LAKE     LGT SNOW  27  24  89 N9        30.09F WCI  18
$$
MNZ037-044-045-052-053-270600-
   East Central Minnesota

CITY           SKY/WX    TMP DP  RH WIND       PRES   REMARKS
PRINCETON      CLOUDY    28  21  74 N7        30.09F WCI  21
MORA           CLOUDY    27  19  74 N6        30.11F WCI  20
CAMBRIDGE      LGT SNOW  28  21  74 N3        30.07F
RUSH CITY      FLURRIES  27  23  84 N7        30.09S WCI  20
MOOSE LAKE     CLOUDY    27  19  74 N7        30.09R WCI  19
HINCKLEY       CLOUDY    28  21  74 CALM      30.09S
CLOQUET        CLOUDY    25  18  74 NW8       30.09S WCI  16
MCGREGOR       CLOUDY    23  19  86 N8        30.11S WCI  14
$$
MNZ071>073-080-081-089-090-097-098-270600-
   Southwest Minnesota

CITY           SKY/WX    TMP DP  RH WIND       PRES   REMARKS
MONTEVIDEO     CLOUDY    25  21  86 NE13      30.11F WCI  13
GRANITE FALLS  CLOUDY    25  21  87 NW14G21   30.11F WCI  13
CANBY          CLOUDY    22  20  90 N14G20    30.12F WCI   9
MARSHALL       CLOUDY    23  18  80 N16G22    30.09R WCI  10
REDWOOD FALLS  LGT SNOW  26  23  88 N8        30.08S FOG     WCI  18
OLIVIA         CLOUDY    27  23  86 N12       30.07F WCI  16
PIPESTONE      LGT SNOW  21  19  93 NE13      30.06R WCI   9
WINDOM         LGT SNOW  25  25 100 N15       30.03S WCI  12
WORTHINGTON    CLOUDY    23 -22  13 N15       30.03F WCI  10
JACKSON        LGT SNOW  28  25  86 N12G17    30.02S WCI  18
TRACY          LGT SNOW  24  23  94 N9        30.08R WCI  15
SLAYTON        LGT SNOW  22  21  95 N12       30.06R WCI  11
$$
MNZ065>067-074>077-082>085-091>093-270600-
   South Central Minnesota

CITY           SKY/WX    TMP DP  RH WIND       PRES   REMARKS
MANKATO        CLOUDY    28  23  80 N16       30.01F WCI  17
NEW ULM        LGT SNOW  27  25  93 N7        30.04F WCI  19
ST JAMES       LGT SNOW  28  27  93 N14       30.04F WCI  17
FAIRMONT       CLOUDY    28  25  86 N16G23    30.00F WCI  17
GLENCOE        LGT SNOW  27  26  97 N10       30.05F WCI  17
FARIBAULT      LGT SNOW  28  27  93 N10       30.01F WCI  19
OWATONNA       DRIZZLE   28  27  93 N12       30.00F WCI  18
WASECA         CLOUDY    30  27  86 N15       30.01F WCI  19
ALBERT LEA     CLOUDY    30  28  93 N12       29.97F WCI  21
$$
MNZ078>079-086>088-094>096-270600-
   Southeast Minnesota

CITY           SKY/WX    TMP DP  RH WIND       PRES   REMARKS
ROCHESTER      LGT SNOW  30  28  92 N12       29.97F VSB 1   WCI  20
RED WING       LGT SNOW  30  28  93 N3        30.03F VSB 1
STANTON        LGT SNOW  31  28  88 N12       30.01F WCI  22
DODGE CENTER   LGT SNOW  30  28  93 N12       29.98F WCI  21
WINONA         LGT SNOW  34  34 100 NW3       30.00F
AUSTIN         MIX PCPN  30  28  93 N9        29.96F WCI  22
PRESTON        LGT SNOW  31  30  98 N6        29.96F WCI  25
$$
ABBREVIATIONS USED IN REMARKS
   TC - TEMPERATURES IN CELSIUS
  WCI - WIND CHILL INDEX
   HX - HEAT INDEX
  VSB - VISIBILITY
$$



USA.gov is the U.S. government's official web portal to all federal, state and local government web resources and services.